Regional Weather Roundup
Issued by NWS Goodland, KS

Home | Current Version | Previous Version | Graphics & Text | Print | Product List | Glossary On
Versions: 1 2 3 4 5 6 7 8 9 10 11 12 13 14 15 16 17 18 19 20 21 22 23 24 25 26 27 28 29 30 31 32 33 34 35 36 37 38 39 40 41 42 43 44 45 46 47 48 49 50
000
ASUS43 KGLD 221908
RWRGLD

GOODLAND FORECAST AREA HOURLY WEATHER ROUNDUP
NATIONAL WEATHER SERVICE GOODLAND KS
100 PM MDT TUE AUG 22 2017

...OFFICIAL OBSERVATIONS...

CITY           SKY/WX    TMP DP  RH WIND       PRES   REMARKS
GOODLAND KS    SUNNY     74  57  55 E8        30.29F
HILL CITY KS   SUNNY     82  49  31 E12G22    30.23F
IMPERIAL NEB   SUNNY     78  44  29 SE12G17   30.28F
MCCOOK NEB     SUNNY     79  50  36 SE7       30.26F
AKRON CO         N/A     76  49  38 SE15G28   30.31F
BURLINGTON CO  MOSUNNY   74  56  53 E8        30.32F
LIMON CO       MOSUNNY   73  56  54 S13       30.35F
$$

...UNOFFICIAL OBSERVATIONS...

CITY           SKY/WX    TMP DP  RH WIND       PRES   REMARKS
LENORA KS        N/A     78  32  18 NE5         N/A
NORTON KS      SUNNY     81  41  24 NE9       30.24
TRENTON NEB      N/A     79  32  18 SE6         N/A
KIT CARSON CO    N/A     72  56  57 MISG        N/A
YUMA CO        FAIR      72  45  37 SE12      30.30F
$$




USA.gov is the U.S. government's official web portal to all federal, state and local government web resources and services.